sat.trackr.live / text

‹ back to catalog

YAOGAN-35 03A

NORAD 53316 · 2022-088A

PAYLOAD ACTIVE UNKNOWN

§ Identity

Operator
Country
PRC
Launch date
2022-07-29
Launch site
XICLF
Launch vehicle
Mass (kg)
RCS (m²)

External: N2YO · Heavens-Above · Gunter

§ Orbital elements

Epoch: 2026-06-29T14:56:47.157792Z

Period
87.97 min
Inclination
35.0076°
Eccentricity
0.0003678
Mean motion
16.36949118 rev/d
Perigee alt
171.5 km
Apogee alt
176.3 km
Semi-major
6,552.1 km
B*
9.3985e-4
RAAN
309.0104°
Arg perigee
318.2686°
Mean anomaly
41.7783°
Rev number
22,011

§ Raw data

YAOGAN-35 03A1 53316U 22088A   26180.62276803  .09384115  14245-5  93985-3 0  99982 53316  35.0076 309.0104 0003678 318.2686  41.7783 16.36949118220110

JSON: /api/v1/satellites/53316 · /tle

For live sub-satellite position, see the globe view (requires WebGL).

§ Visibility from observer

Set your observer location to see the next 7 days of passes ≥ 10°. The values pass through the URL so the page stays shareable.

No JS? Fill the form by hand. The geolocation button needs JavaScript.